NOAA NWS Hourly Roundups by Site

Regional Weather Roundup for Green Bay, WI

To Select Another Site Choose from List

Select Site:  

000
ASUS43 KGRB 161711
RWRGRB

NORTH-CENTRAL AND NORTHEAST WISCONSIN REGIONAL WEATHER ROUNDUP
NATIONAL WEATHER SERVICE GREEN BAY WI
1200 PM CDT TUE JUL 16 2019

WIZ005-009-010>012-018-019-161800-
NORTH CENTRAL WISCONSIN

CITY           SKY/WX    TMP DP  RH WIND       PRES   REMARKS
IRONWOOD       FAIR      78  65  63 N6        29.89S
MANITOWISH WTR PTSUNNY   78  66  68 NW6       29.91R
ARBOR VITAE    FAIR      80  67  65 CALM      29.91S
EAGLE RIVER    FAIR      78  63  60 W6        29.90S
LAND O LAKES   FAIR      80  65  59 W6        29.91F
RHINELANDER    PTSUNNY   76  67  73 VRB6      29.93S
PHILLIPS       FAIR      76  70  82 SW6       29.91S
ANTIGO         FAIR      77  71  80 W8        29.93S
TOMAHAWK       CLOUDY    75  68  77 CALM      29.92S
MERRILL        PTSUNNY   78  71  77 W5        29.92S
$$

WIZ013-073-161800-
NORTHEAST WISCONSIN

CITY           SKY/WX    TMP DP  RH WIND       PRES   REMARKS
IRON MOUNTAIN  FAIR      81  68  64 NW6       29.86F
MARINETTE      FAIR      81  69  67 SW9       29.86F
OCONTO         FAIR      83  69  62 W8        29.86F
$$

WIZ017-030-035>037-045-161800-
CENTRAL WISCONSIN

CITY           SKY/WX    TMP DP  RH WIND       PRES   REMARKS
MEDFORD        FAIR      76  69  78 W5        29.91F
WAUSAU         FAIR      79  69  71 VRB5      29.89F
MOSINEE        MOSUNNY   79  70  73 SW6       29.92F
MARSHFIELD     FAIR      80  71  74 VRB5      29.91F
WISC RAPIDS    FAIR      83  69  62 NW7       29.91F
STEVENS POINT  FAIR      79  68  69 W7        29.91F
WAUPACA        FAIR      85  69  58 SW5       29.90S
SHAWANO        FAIR      83  70  64 SW6       29.88S
CLINTONVILLE   FAIR      83  67  58 W8        29.89S
WAUTOMA        FAIR      84  70  62 W9        29.91S
$$

WIZ038-039-048-051-161800-
FOX VALLEY

CITY           SKY/WX    TMP DP  RH WIND       PRES   REMARKS
NWS GREEN BAY  FAIR      83  71  67 SW7G17    29.88F
APPLETON       MOSUNNY   81  63  54 SW7       29.89F
OSHKOSH        FAIR      84  68  58 W8        29.89F
FOND DU LAC    FAIR      85  69  58 W9        29.91F
$$

WIZ022-050-052-161800-
EAST CENTRAL WISCONSIN

CITY           SKY/WX    TMP DP  RH WIND       PRES   REMARKS
EPHRAIM        FAIR      78  68  71 SW9G17    29.86S
WASHINGTON ISL CLOUDY    77  69  75 SW14G20   29.86R
STURGEON BAY   FAIR      80  69  69 W9        29.88S
MANITOWOC      FAIR      83  69  62 SW9G16    29.90F
SHEBOYGAN      PTSUNNY   84  69  60 W9        29.91S
$$

LMZ563-521-522-541>543-161800-
LAKESHORE

STATION/POSITION TIME  TEMP    WIND        PRES    VSBY  WAVE
                       AIR SEA DIR/SP/G                  HT/PER
                 (UTC) (F)     (DEG/KT/KT) (MB)    (MI)  (FT/S)
SHEBOYGAN LKSHOR 1700   71     170/ 21/ 22 1012.0F
KEWAUNEE LKSHORE 1624          180/  8/ 11 1011.7
NORTHPORT PIER   1640   80     220/  4/  9 1010.8R
N MID LAKE BUOY  1650   67 64  200/ 16/ 19 1011.4R         3/ 5
CHAMBERS ISLAND  1640   78     180/  6/ 13 1014.6R
MENOMINEE LKSHOR 1624   80 73  230/  9/ 15 1011.0
$$


 

View Past Reports for Green Bay, WI.

Products Courtesy of NOAA-NWS
NWS Information Parsing Script by Ken True at Saratoga Weather - Script by SE Lincoln Weather.